Flag for Germany Weather past 2 weeks in Halle, Saxony-Anhalt, Germany

Now
32 °F

Light snow. Passing clouds.


Feels Like: 21 °F
Forecast: 24 / 31 °F
Wind: 17 mph from Northwest

Location: Leipzig-Schkeuditz

Current Time: Dec 26, 2014 at 2:06:13 AM

Latest Report: Dec 26, 2014 at 1:20 AM


Visibility: N/A

Pressure: 30.24 "Hg

Humidity: 100%

Dew point: 32 °F

Location of HalleLocation

Historic Weather in Halle — Graph

°F

Halle temperature yesterday

Maximum temperature yesterday: 43 °F (at 12:20 AM)
Minimum temperature yesterday: 34 °F (at 10:50 PM)
Average temperature yesterday: 39 °F

Past Weeks' High & Low Weather Summary

 TemperatureHumidityPressure
High54 °F (Dec 18, 9:50 PM)100% (Dec 13, 8:50 PM)30.33 "Hg (Dec 13, 8:50 PM)
Low32 °F (Dec 15, 5:50 AM)66% (Dec 12, 1:20 PM)29.45 "Hg (Dec 12, 7:20 PM)
Average43 °F86%29.90 "Hg
* Reported Dec 11 12:20 AM — Dec 26 12:50 AM, Halle, Weather by CustomWeather, © 2014

Note: Actual official high and low records may vary slightly from our data, if they occured in-between our weather recording intervals... More about our weather records

Advertising

Halle weather history for previous 24 hours

 ConditionsComfort  
Time TempWeatherWind HumidityBarometerVisibility
12:50 AM
Dec 26
32 °FLight snow. Passing clouds.18 mph100%30.21 "HgN/A
12:20 AM34 °FLight snow. Passing clouds.18 mph100%30.21 "HgN/A
11:50 PM
Dec 25
34 °FLight snow. Passing clouds.20 mph100%30.18 "Hg4 mi
11:20 PM34 °FLight snow. Passing clouds.20 mph100%30.18 "Hg2 mi
10:50 PM34 °FLight snow. Passing clouds.21 mph100%30.15 "Hg2 mi
10:20 PM36 °FLight rain. Passing clouds.24 mph93%30.12 "HgN/A
9:50 PM37 °FLight rain. Passing clouds.18 mph87%30.12 "HgN/A
9:20 PM37 °FSprinkles. Passing clouds.20 mph87%30.09 "HgN/A
8:50 PM39 °FSprinkles. Passing clouds.22 mph81%30.09 "HgN/A
8:20 PM39 °FSprinkles. Passing clouds.21 mph81%30.09 "HgN/A
7:50 PM37 °FPassing clouds.20 mph87%30.07 "HgN/A
7:20 PM37 °FClear.21 mph87%30.07 "Hg10 mi
6:50 PM37 °FClear.23 mph87%30.07 "Hg10 mi
6:20 PM39 °FClear.21 mph87%30.07 "Hg10 mi
5:50 PM37 °FClear.17 mph87%30.07 "Hg10 mi
5:20 PM39 °FPassing clouds.13 mph87%30.07 "HgN/A
4:50 PM39 °FPassing clouds.13 mph87%30.07 "HgN/A
4:20 PM41 °FPassing clouds.13 mph81%30.07 "HgN/A
3:50 PM41 °FPartly sunny.14 mph81%30.07 "HgN/A
3:20 PM41 °FPartly sunny.16 mph87%30.07 "HgN/A
2:50 PM43 °FPartly sunny.23 mph76%30.04 "HgN/A
2:20 PM43 °FPartly sunny.20 mph76%30.04 "HgN/A
1:50 PM43 °FPartly sunny.20 mph76%30.04 "HgN/A
1:20 PM43 °FPartly sunny.24 mph76%30.04 "HgN/A
12:50 PM43 °FPartly sunny.24 mph76%30.04 "HgN/A
12:20 PM43 °FPartly sunny.24 mph76%30.04 "HgN/A
11:50 AM43 °FSunny.24 mph76%30.04 "Hg10 mi
11:20 AM41 °FBroken clouds.21 mph81%30.07 "HgN/A
10:50 AM41 °FSunny.21 mph81%30.04 "Hg10 mi
10:20 AM39 °FScattered clouds.17 mph81%30.07 "HgN/A
9:50 AM39 °FPartly sunny.17 mph87%30.07 "HgN/A
9:20 AM39 °FPartly sunny.17 mph81%30.07 "HgN/A
8:50 AM39 °FPartly sunny.15 mph81%30.07 "HgN/A
8:20 AM37 °FPartly sunny.15 mph87%30.04 "HgN/A
7:50 AM37 °FPassing clouds.15 mph87%30.04 "HgN/A
7:20 AM37 °FPassing clouds.15 mph87%30.04 "HgN/A
6:50 AM37 °FPassing clouds.12 mph87%30.04 "HgN/A
6:20 AM37 °FPassing clouds.14 mph87%30.04 "HgN/A
5:50 AM36 °FPassing clouds.13 mph93%30.04 "HgN/A
5:20 AM36 °FClear.13 mph93%30.04 "Hg10 mi
4:50 AM36 °FClear.13 mph93%30.04 "Hg10 mi
4:20 AM36 °FClear.13 mph93%30.04 "Hg10 mi
3:50 AM37 °FClear.13 mph93%30.04 "Hg10 mi
3:20 AM36 °FClear.10 mph93%30.04 "Hg10 mi
2:50 AM37 °FClear.13 mph93%30.04 "Hg10 mi
2:20 AM39 °FPassing clouds.12 mph87%30.04 "HgN/A
Weather by CustomWeather, © 2014

See weather overviewHow to use our weather pages